Probability
47 48 49 46 40 34 32 33 34 33 32 31 29 29 31 31 31 33 32 31 33 35 34 30 28 25 22 21 19 18 21 24 22 18 16 16 16 15 14 13 11 9 10
49 51 51 47 43 39 38 40 41 39 36 34 31 31 31 31 33 35 34 32 32 33 32 29 27 25 23 22 22 21 23 25 25 20 16 17 19 19 17 14 10 9 9
52 52 50 47 46 45 45 48 50 47 41 38 36 35 34 34 35 36 35 32 30 29 28 27 25 24 23 23 24 25 26 26 25 21 18 19 19 19 18 14 10 9 8
53 51 48 47 45 45 48 51 53 50 44 41 41 39 37 37 37 37 36 32 29 28 28 26 24 24 24 23 24 26 27 27 25 21 18 18 18 17 15 13 12 11 10
56 53 51 49 46 46 49 52 53 50 48 47 46 41 37 35 36 35 34 32 31 31 29 27 25 24 23 21 21 24 25 26 24 18 14 14 15 15 13 12 12 12 13
58 56 55 53 49 49 53 54 54 53 52 51 48 41 36 32 29 27 26 29 31 30 28 27 27 25 22 19 17 16 16 18 17 15 13 12 13 15 13 10 9 10 11
56 56 56 55 52 51 54 56 56 56 54 50 45 40 35 28 22 18 19 25 29 28 29 29 28 27 24 22 18 13 11 9 9 12 13 13 14 16 15 11 8 8 8
53 54 56 56 54 53 55 57 57 55 53 49 45 41 36 28 20 15 16 22 28 30 31 32 31 29 27 25 23 20 17 11 7 8 10 11 12 14 15 13 10 8 7
51 53 55 57 56 55 57 59 57 55 52 49 47 44 40 31 21 14 15 24 31 33 33 32 31 30 27 25 26 28 26 19 12 8 8 8 9 9 10 11 10 9 8
49 52 55 56 56 56 57 59 57 53 50 49 47 45 41 33 23 13 13 24 32 33 32 30 28 26 22 20 23 28 28 23 18 14 10 9 7 6 5 7 9 9 8
47 50 53 54 53 52 54 54 53 51 50 49 48 46 42 34 24 13 11 18 27 29 29 27 24 18 13 11 15 22 23 20 18 16 14 12 12 10 8 8 8 8 6
47 48 51 52 49 48 49 49 48 47 48 49 48 46 41 33 24 15 9 10 16 22 24 22 18 12 7 5 7 12 13 12 13 16 17 17 17 17 15 12 9 7 5
46 47 48 48 46 45 45 44 41 40 42 44 43 40 36 29 22 15 10 6 8 15 18 15 10 7 5 4 4 4 5 6 11 17 19 18 19 19 18 16 12 8 6
44 44 45 44 43 42 39 35 32 30 32 35 36 34 31 26 21 16 12 9 8 11 13 10 6 5 7 8 7 5 5 8 13 17 18 17 16 17 17 15 13 10 8
42 41 40 39 37 35 29 24 21 19 20 23 26 27 25 23 19 15 13 12 11 12 12 10 8 9 12 13 13 13 12 13 14 15 15 14 14 14 14 13 11 10 9
40 37 34 33 33 29 23 17 13 11 9 11 15 17 17 16 13 10 9 10 11 11 11 13 13 13 14 15 16 17 16 15 15 14 13 13 13 13 12 11 9 8 8
36 33 30 30 31 28 22 17 13 10 6 5 7 7 8 7 5 3 3 5 7 8 11 14 15 14 13 13 14 14 14 14 14 13 12 11 11 12 11 9 8 7 7
30 27 26 28 29 26 22 18 16 14 12 9 5 3 2 2 1 0 1 5 7 9 12 14 13 11 10 9 10 10 11 12 11 10 9 8 8 8 8 6 6 6 6
22 20 20 22 23 22 19 17 16 16 16 13 9 5 2 0 0 0 2 7 10 11 12 12 11 9 8 7 7 8 9 9 9 9 8 6 5 5 5 4 3 3 4
17 14 13 15 18 19 17 16 16 16 16 14 12 10 5 2 1 1 1 4 8 10 10 10 10 9 7 6 7 7 7 7 7 7 7 6 5 4 3 3 1 1 2
14 12 10 12 16 18 17 16 16 16 15 15 14 10 6 4 3 2 1 3 5 7 8 9 9 9 8 7 7 6 5 5 6 6 6 6 5 5 4 3 2 1 1
12 11 10 12 15 16 16 16 16 16 16 15 13 8 5 4 4 4 3 4 5 5 6 6 6 6 6 7 7 6 5 4 4 5 6 5 4 5 5 5 3 1 0
7 7 7 10 13 13 14 15 15 15 15 13 9 7 5 4 4 4 4 5 4 3 3 3 3 3 4 6 7 6 4 3 3 4 5 4 3 4 4 5 3 1 0
2 2 3 6 9 11 11 11 12 12 11 8 6 5 5 4 3 3 4 4 3 3 2 2 2 2 3 5 6 5 4 3 3 4 4 4 3 3 3 4 3 1 0
1 1 3 4 5 7 7 7 7 7 6 4 4 4 3 3 2 2 2 2 2 2 2 2 2 3 3 4 5 4 3 3 3 3 4 4 4 3 3 3 3 2 1
2 2 3 3 2 4 4 4 3 4 4 4 3 3 2 1 1 1 1 1 1 1 1 1 1 2 3 4 4 4 3 2 2 3 4 4 4 3 3 3 3 2 1
Wind_Speed
8 7 5 6 6 5 4 3 2 2 2 2 2 2 2 2 2 2 2 2 2 2 2 2 2 2 2 2 2 1 1 1 2 2 0 1 1 1 3 3 3 4 5
8 7 6 6 5 5 4 4 3 3 3 3 2 2 3 2 2 2 2 2 2 2 2 2 2 2 2 2 2 2 2 2 2 2 1 1 2 2 3 3 3 4 4
9 8 7 6 6 5 4 4 4 4 3 3 3 2 2 2 2 2 2 3 2 2 2 2 2 2 2 2 2 2 2 2 1 1 2 1 1 2 2 2 2 1 3
8 8 7 7 6 5 4 4 4 4 4 4 3 3 3 2 2 2 2 2 2 2 2 2 1 1 2 2 2 2 2 2 1 1 2 1 1 1 1 1 2 2 2
6 6 6 6 6 5 5 4 4 4 5 4 4 4 3 3 2 2 3 3 3 3 2 1 1 2 1 0 1 2 2 2 1 1 1 1 0 1 1 2 2 2 2
5 6 5 5 5 5 5 4 4 4 3 4 4 4 3 3 2 2 2 3 2 2 2 2 2 2 2 2 2 2 2 2 2 1 1 1 1 1 1 2 2 1 2
5 4 4 4 4 4 5 5 5 4 4 3 3 3 3 2 2 1 2 3 2 1 1 2 2 1 1 2 3 4 3 3 4 2 2 2 2 1 2 3 2 3 3
4 4 4 4 4 4 3 3 3 3 3 3 3 3 2 2 2 2 2 3 2 1 1 1 1 1 2 2 2 2 3 4 5 4 3 3 2 2 3 3 4 3 3
4 4 4 4 4 4 4 3 3 2 3 3 2 2 2 2 2 2 2 3 2 2 2 1 1 1 2 2 2 3 3 3 4 5 5 5 5 4 3 1 2 2 3
3 3 3 4 4 4 3 3 2 2 3 3 2 2 2 2 2 2 2 3 2 2 1 1 1 1 2 1 2 3 4 4 3 3 4 4 5 5 5 4 3 3 3
2 3 3 3 3 4 3 3 3 3 3 2 2 2 2 3 2 2 2 2 2 2 2 1 1 1 1 2 3 3 5 5 4 4 3 3 3 3 3 3 3 3 3
2 2 2 3 3 3 3 3 3 3 3 3 3 2 2 1 1 2 2 3 3 2 1 1 0 1 2 3 4 5 6 5 3 3 2 2 2 2 3 3 4 4 5
2 2 2 3 2 3 3 3 3 3 3 3 3 2 2 1 1 2 3 2 3 2 1 0 1 2 3 3 5 5 4 3 3 3 3 3 3 2 2 2 3 3 5
2 2 2 3 3 3 2 2 2 2 2 2 2 2 2 2 1 1 1 1 1 1 1 1 2 3 4 4 3 3 3 3 3 3 3 3 2 1 1 1 2 2 3
1 2 2 3 3 2 1 1 0 0 1 2 1 1 2 2 2 2 2 2 2 1 1 2 2 2 2 2 2 2 2 2 2 2 2 2 2 2 2 1 1 2 3
1 2 2 3 3 3 3 2 5 3 2 2 2 2 1 2 4 2 1 1 2 2 1 2 2 2 2 2 2 1 1 1 2 2 2 2 2 2 2 2 2 3 3
2 2 2 2 3 3 3 3 2 2 3 3 2 3 3 3 3 2 2 1 1 2 2 2 2 2 2 2 2 1 1 1 2 2 2 2 2 2 2 2 2 3 3
2 2 2 2 2 3 3 3 3 3 2 1 1 2 3 3 3 3 2 1 1 2 2 2 2 2 2 2 1 2 2 2 2 2 2 2 2 2 3 3 3 3 3
2 2 2 2 2 2 2 3 2 2 2 2 1 1 2 2 2 2 2 2 2 2 2 2 1 1 1 1 1 1 2 2 2 2 2 2 3 3 3 2 3 4 3
2 2 2 2 2 1 2 2 2 2 2 2 2 1 1 1 1 1 2 1 1 1 1 1 1 1 1 1 1 1 2 2 2 2 2 2 3 3 3 3 3 3 3
2 1 2 2 1 1 1 1 1 2 2 2 2 3 3 2 1 0 1 0 1 1 1 1 2 2 2 2 2 2 3 2 2 2 3 3 3 3 3 3 3 3 3
2 1 0 0 0 1 1 1 1 1 2 2 2 2 3 1 0 0 0 1 1 1 2 2 2 2 2 3 3 3 3 4 4 4 4 4 3 3 3 3 3 3 3
1 0 1 1 1 1 1 1 1 1 1 1 1 1 1 0 0 0 1 1 2 2 2 2 3 3 4 4 4 4 4 4 4 5 5 5 4 4 4 4 4 4 4
1 1 2 2 1 1 1 0 0 1 1 0 1 1 1 1 1 1 1 1 2 2 2 3 3 5 6 5 4 5 5 5 5 4 5 6 5 4 4 4 4 5 5
1 2 3 2 2 2 2 1 1 2 2 1 2 2 1 1 1 2 2 3 3 4 4 4 4 4 6 6 6 5 5 5 4 5 5 5 6 6 5 5 4 5 5
2 3 3 2 2 3 2 2 3 3 3 2 2 2 2 2 2 2 2 2 2 3 3 3 4 5 6 5 6 5 4 4 5 5 5 5 6 5 5 4 5 5 5
Wind_Direction
178 177 176 175 184 196 200 194 195 201 189 191 197 198 199 207 210 215 224 224 214 233 256 258 262 280 299 301 288 271 247 227 258 278 200 139 166 183 173 189 184 184 189
175 173 177 176 184 194 192 193 195 198 197 197 199 203 215 209 206 210 236 243 229 228 244 258 267 272 275 291 303 291 274 246 229 258 254 208 206 198 195 204 217 210 192
174 176 178 183 189 195 197 198 193 191 194 191 193 206 225 219 210 215 226 242 249 245 244 249 263 280 284 290 284 285 292 290 237 228 247 236 215 201 193 224 230 236 231
173 178 180 186 190 195 201 198 189 185 189 190 194 203 213 212 218 232 242 238 246 248 246 244 248 255 284 286 285 296 291 295 286 237 241 235 202 177 182 230 242 226 233
174 181 184 184 187 190 194 191 184 190 197 189 194 205 205 212 224 224 239 236 230 233 235 225 212 168 123 295 295 307 291 271 272 261 254 260 226 171 225 239 243 245 231
177 183 177 178 188 192 188 184 181 186 193 191 199 202 213 225 220 211 231 256 235 223 227 226 213 189 187 208 231 260 274 263 263 268 274 269 285 273 260 267 262 257 264
170 171 169 176 185 189 192 183 184 190 193 198 202 196 189 191 216 236 243 244 236 233 247 260 264 243 206 234 238 237 242 243 231 234 263 264 258 258 263 265 255 250 253
167 173 172 175 179 177 181 182 189 189 190 196 203 192 176 199 211 227 261 223 223 221 237 247 244 295 314 298 279 264 249 238 222 217 232 252 259 251 246 255 259 252 255
174 179 174 173 179 182 179 183 188 187 194 198 186 179 184 209 225 225 249 238 220 227 231 253 226 240 296 282 266 266 262 260 242 227 221 228 238 250 251 268 277 265 267
182 182 174 171 177 183 180 179 180 190 201 199 191 178 178 199 223 222 239 252 241 227 188 197 207 235 301 273 253 263 264 272 276 248 232 229 230 227 220 217 229 247 270
176 169 168 172 182 182 175 175 181 192 195 191 192 190 188 199 196 195 191 247 273 261 243 216 210 156 233 251 247 252 258 270 273 257 238 225 226 223 217 219 222 227 246
149 157 168 171 199 184 166 180 186 189 191 191 193 189 184 162 157 173 180 210 258 268 265 260 165 209 240 253 251 266 274 276 264 260 252 244 233 236 241 235 232 236 239
155 165 178 180 178 172 175 182 187 193 199 198 198 197 185 166 178 181 178 213 255 253 277 289 286 252 250 250 249 261 272 263 259 258 258 256 246 236 241 237 241 245 251
148 165 172 164 165 154 165 189 195 203 209 199 201 208 194 181 203 193 200 222 248 259 288 283 251 250 256 262 261 249 241 253 261 266 272 278 282 278 265 262 261 253 264
163 189 198 192 176 154 133 43 172 31 212 193 210 219 208 209 219 208 224 237 245 246 269 254 249 244 245 243 237 237 237 239 249 263 271 278 277 268 263 263 270 272 260
204 209 216 211 187 168 144 95 48 55 67 105 148 168 147 179 187 179 203 248 242 180 204 250 257 263 269 273 271 261 252 263 271 264 259 260 264 263 262 255 256 258 259
237 247 245 232 204 190 171 169 155 68 53 68 106 134 158 176 186 190 202 237 222 176 207 245 259 267 280 287 293 309 309 294 280 273 273 271 264 261 259 258 256 261 265
244 251 253 250 228 213 198 199 188 180 170 112 63 131 151 176 201 205 194 153 214 219 233 240 244 256 271 291 309 316 319 315 302 291 280 279 279 274 268 264 259 261 263
255 254 257 255 245 224 207 206 198 182 168 150 125 114 169 189 229 235 204 232 233 235 256 264 273 288 299 317 326 319 309 299 303 302 304 307 294 282 280 276 270 270 259
255 241 244 262 242 209 207 205 192 175 163 165 153 120 115 157 176 213 227 244 278 285 298 326 340 335 332 324 311 288 284 295 304 305 312 307 304 299 291 286 285 285 272
270 230 225 243 232 207 209 215 199 186 191 173 156 142 155 190 193 200 229 239 312 317 342 357 359 359 354 340 336 337 336 330 337 331 321 311 308 302 295 288 282 280 285
280 242 234 152 161 172 208 230 220 191 187 180 148 154 177 199 138 64 302 318 352 356 350 353 355 4 9 357 348 351 353 360 360 347 332 319 310 303 300 300 303 294 286
258 70 68 71 86 121 205 265 260 234 207 153 129 131 163 186 96 14 17 19 16 12 9 9 6 14 22 17 10 10 14 12 352 338 328 321 318 315 311 305 298 295 295
308 75 70 62 57 37 30 353 356 108 117 125 108 83 59 40 20 22 38 44 33 18 23 28 23 22 26 21 21 27 26 7 344 333 329 314 307 303 299 297 299 300 298
44 66 60 46 45 40 33 39 52 68 73 71 70 65 49 39 43 40 43 41 36 34 30 30 26 16 21 24 26 27 19 11 356 334 317 306 300 295 295 298 298 297 298
38 52 48 48 57 54 54 51 47 47 53 57 60 65 56 42 43 42 41 39 39 32 30 31 22 12 8 23 27 23 14 358 341 325 310 297 297 300 306 300 298 298 295